Regional Weather Roundup
Issued by NWS

Home | Current Version | Previous Version | Text Only | Print | Product List | Glossary Off
Versions: 1 2 3 4 5 6 7 8 9 10 11 12 13 14 15 16 17 18 19 20 21 22 23 24 25 26 27 28 29 30 31 32 33 34 35 36 37 38 39 40 41 42 43 44 45 46 47 48 49 50

000
ASUS43 KMPX 280710
RWRMN
WEATHER ROUNDUP FOR MINNESOTA
NATIONAL WEATHER SERVICE TWIN CITIES/CHANHASSEN MN
100 AM CST SUN DEC 28 2014


NOTE: "FAIR" INDICATES FEW OR NO CLOUDS BELOW 12,000 FEET WITH NO
SIGNIFICANT WEATHER AND/OR OBSTRUCTIONS TO VISIBILITY. N/A MEANS
CURRENT SKY AND/OR WEATHER CONDITIONS ARE NOT AVAILABLE.

MNZ060>063-068>070-280800-
   Twin Cities Metro

CITY           SKY/WX    TMP DP  RH WIND       PRES   REMARKS
TWIN CITIES    CLOUDY    12   7  80 SW7       30.09F WCI   1
ST PAUL        CLOUDY    12   7  80 CALM      30.11F
CRYSTAL        CLOUDY    14   8  77 SW7       30.07F WCI   4
BLAINE         CLOUDY    16  12  86 S6        30.06F WCI   7
LAKEVILLE      CLEAR      9   7  92 CALM      30.09F
EDEN PRAIRIE   CLOUDY    10   6  84 SW8       30.08F WCI  -2
SOUTH ST PAUL  CLOUDY    12   9  85 CALM      30.09F
LAKE ELMO      CLOUDY    12   9  85 S5        30.09F WCI   4
$$
MNZ001>005-007-008-013>017-022>024-027-028-280800-
   Northwest Minnesota

CITY           SKY/WX    TMP DP  RH WIND       PRES   REMARKS
BEMIDJI        LGT SNOW  14  10  85 NW7       30.00S WCI   4
HALLOCK        MOCLDY     1  -8  66 N14       30.15R WCI -17
ROSEAU         PTCLDY     0  -6  78 NW7       30.10S WCI -13
WARROAD        CLOUDY     0  -6  78 NW6       30.09R WCI -12
THIEF RVR FALL CLOUDY     7   1  78 N14       30.09R WCI -10
CROOKSTON      CLOUDY    10   7  85 N10       30.12R WCI  -3
FOSSTON        LGT SNOW  10   9  92 N15       30.04S WCI  -6
DETROIT LAKES  MIX PCPN  21  21 100 NW6       30.01S WCI  14
MOORHEAD       CLOUDY    23  21  93 N13       30.06R WCI  11
PARK RAPIDS    CLOUDY    21  17  84 NW6       29.99R WCI  13
MAHNOMEN       FLURRIES  16  13  89 N9        30.02S WCI   4
$$
MNZ006-009>011-018-025>026-280800-
   North Central Minnesota

CITY           SKY/WX    TMP DP  RH WIND       PRES   REMARKS
BAUDETTE       MOCLDY    -1  -6  79 NW15      30.05S WCI -21
FLAG ISLAND    CLOUDY     0  -6  78 NW15      30.06S WCI -20
INTL FALLS     PTCLDY     5   0  79 NW8       30.01S WCI  -8
WASKISH        FLURRIES  10   7  85 CALM      30.04R
BIG FORK       LGT SNOW  14  10  85 CALM      30.00S
LONGVILLE      FLURRIES  19  16  86 NW3       30.00R
GRAND RAPIDS   CLOUDY    18  12  79 NW12      29.98R WCI   5
CRANE LAKE     LGT SNOW  12   7  79 NW6       30.00S WCI   3
ORR            FLURRIES  12   7  79 W7        29.95S WCI   2
COOK           LGT SNOW  12  10  92 W6        29.98S WCI   3
WALKER         FLURRIES  18  14  85 NW3       30.00S
$$
MNZ012-019>021-037-280800-
   Northeast Minnesota

CITY           SKY/WX    TMP DP  RH WIND       PRES   REMARKS
DULUTH         FLURRIES  18  11  74 W8        29.96S WCI   8
ELY            FLURRIES  12   9  85 W5        29.95S WCI   4
HIBBING        CLOUDY    17  10  74 NW8       29.97F WCI   7
EVELETH        FLURRIES  18  14  86 W5        29.98S WCI  11
DULUTH HARBOR  CLOUDY    21  16  79 CALM      30.03F
TWO HARBORS    FLURRIES  19  12  73 W3        29.96R
SILVER BAY     CLOUDY    18  10  73 W5        29.95R WCI  11
GRAND MARAIS     N/A     19  10  68 W7        29.98R WCI  10
G MARAIS ARPRT CLOUDY     9   3  78 W7G16     29.87S WCI  -3
$$
MNZ029>031-032-039>041-046>048-054>057-064-280800-
   West Central Minnesota

CITY           SKY/WX    TMP DP  RH WIND       PRES   REMARKS
FERGUS FALLS   MOCLDY    19  16  86 W3        30.06S
WHEATON        CLEAR     16  14  93 W5        30.06S WCI   9
MORRIS         CLEAR     14  10  85 SW3       30.03F
ALEXANDRIA     PTCLDY    16  13  88 SW6       30.01F WCI   7
ELBOW LAKE     FAIR      16  14  93 SW6       30.02S WCI   7
WADENA         CLOUDY    19  18  93 W7        29.99S WCI  10
GLENWOOD       CLEAR     10  10 100 SW7       30.02F WCI   0
APPLETON       CLEAR     16  10  79 SW7       30.06S WCI   6
BENSON         CLEAR     14  10  85 CALM      30.04F
ORTONVILLE     CLEAR     16  10  79 W5        30.05S WCI   9
MADISON        FAIR      14  10  85 S5        30.06S WCI   6
WILLMAR        FAIR      12   9  85 SW3       30.06F
$$
MNZ033>034-036-042>043-049>051-058-059-280800-
   Central Minnesota

CITY           SKY/WX    TMP DP  RH WIND       PRES   REMARKS
ST CLOUD       CLOUDY    21  14  74 SW6       30.04F WCI  13
SAUK CENTRE    PTSUNNY   14  11  89 SW6       30.02F WCI   5
PAYNESVILLE    CLEAR     11  10  95 S5        30.04F WCI   3
AITKIN         FLURRIES  23  16  74 CALM      29.99S
PINE RIVER     FLURRIES  19  18  93 CALM      30.03S
BRAINERD       CLOUDY    19  15  84 S6        30.01S WCI  11
STAPLES        CLOUDY    19  18  93 W3        30.00S
LONG PRAIRIE   CLOUDY    18  14  86 SW6       30.01F WCI   9
LITTLE FALLS   MOCLDY    12  10  92 CALM      30.03F
LITCHFIELD     PTCLDY    14  12  92 CALM      30.06F
BUFFALO        CLOUDY    12   9  85 S5        30.08S WCI   5
MAPLE LAKE     CLOUDY    16  13  90 S3        30.07S
$$
MNZ037-044-045-052-053-280800-
   East Central Minnesota

CITY           SKY/WX    TMP DP  RH WIND       PRES   REMARKS
PRINCETON      CLOUDY    16  12  86 CALM      30.04F
MORA           MOCLDY    18  12  79 SW3       30.05S
CAMBRIDGE      CLOUDY    12   7  79 CALM      30.04F
RUSH CITY      CLOUDY    13   9  85 S3        30.05F
MOOSE LAKE     CLOUDY    18  12  79 CALM      29.99F
HINCKLEY       CLOUDY    21  18  86 CALM      30.03S
CLOQUET        FLURRIES  18  12  79 W5        29.98S WCI  11
MCGREGOR       CLOUDY    21  18  86 SW5       30.00S WCI  15
$$
MNZ071>073-080-081-089-090-097-098-280800-
   Southwest Minnesota

CITY           SKY/WX    TMP DP  RH WIND       PRES   REMARKS
MONTEVIDEO     CLEAR     16  12  86 W7        30.07F WCI   6
GRANITE FALLS  CLEAR     11   8  89 S8        30.08F WCI  -1
CANBY          CLEAR     18  13  84 SW14      30.05F WCI   4
MARSHALL       CLEAR     12   7  79 SW10      30.05F WCI  -1
REDWOOD FALLS  CLEAR     10   5  80 SW10      30.08F WCI  -4
OLIVIA         CLEAR     10   9  92 SW8       30.06F WCI  -1
PIPESTONE      CLEAR      3   0  85 CALM      30.05F FOG
WINDOM         CLEAR      9   7  92 CALM      30.09S
WORTHINGTON    CLEAR     12 -29  14 SW14      30.07F WCI  -3
JACKSON        CLEAR     12   9  85 SW10      30.08F WCI  -1
TRACY          CLEAR      9   7  90 CALM      30.07F
SLAYTON        CLEAR     13  10  89 SW16      30.05S WCI  -4
$$
MNZ065>067-074>077-082>085-091>093-280800-
   South Central Minnesota

CITY           SKY/WX    TMP DP  RH WIND       PRES   REMARKS
MANKATO        CLEAR     10   3  72 S6        30.10F WCI   1
NEW ULM        CLEAR      9   5  85 SW6       30.09F WCI  -1
ST JAMES       CLEAR     12   9  85 SW8       30.11F WCI   1
FAIRMONT       CLEAR     10   5  79 SW6       30.10F WCI   1
GLENCOE        PTCLDY     7   5  91 SW6       30.08F WCI  -3
FARIBAULT      CLEAR      7   3  85 S3        30.10F
OWATONNA       CLEAR      7   3  85 S7        30.10F WCI  -5
WASECA         CLEAR      5   1  85 S7        30.11F WCI  -7
ALBERT LEA     CLEAR     12  10  92 W5        30.10F WCI   4
$$
MNZ078>079-086>088-094>096-280800-
   Southeast Minnesota

CITY           SKY/WX    TMP DP  RH WIND       PRES   REMARKS
ROCHESTER      CLEAR      6   3  87 SW9       30.10S WCI  -8
RED WING       CLEAR      3   0  85 CALM      30.11S
STANTON        CLEAR     10   5  82 S6        30.09F WCI   0
DODGE CENTER   PTCLDY     7   3  85 SW9       30.08F WCI  -7
WINONA         CLEAR     10   9  92 CALM      30.15S
AUSTIN         CLEAR      9   7  92 SW3       30.11S
PRESTON        CLEAR     10   7  86 W10       30.11S WCI  -4
$$
ABBREVIATIONS USED IN REMARKS
   TC - TEMPERATURES IN CELSIUS
  WCI - WIND CHILL INDEX
   HX - HEAT INDEX
  VSB - VISIBILITY
$$



USA.gov is the U.S. government's official web portal to all federal, state and local government web resources and services.